| time (UTC) | temp F | wind direction | speed MPH | gust MPH | rain 1hr in | rain 24hr in | rain mn in | humidity % | barometer mb |
| 20260902192532 | 98 | 302 | 3.0 | 8.0 | 0.00 | 0.00 | 0.00 | 44 | 1012.3 |
| 20260902192009 | 99 | 66 | 1.0 | 4.0 | 0.00 | 0.00 | 0.00 | 41 | 1012.3 |
| 20260902191524 | 99 | 66 | 2.0 | 4.0 | 0.00 | 0.00 | 0.00 | 42 | 1012.4 |
| 20260902191102 | 99 | 66 | 0.0 | 5.0 | 0.00 | 0.00 | 0.00 | 42 | 1012.5 |
| 20260902190538 | 99 | 66 | 0.0 | 8.0 | 0.00 | 0.00 | 0.00 | 42 | 1012.6 |
| 20260902190054 | 99 | 63 | 3.0 | 8.0 | 0.00 | 0.00 | 0.00 | 44 | 1012.6 |
| 20260902185526 | 97 | 345 | 2.0 | 7.0 | 0.00 | 0.00 | 0.00 | 44 | 1012.7 |
| 20260902185001 | 96 | 260 | 1.0 | 7.0 | 0.00 | 0.00 | 0.00 | 44 | 1012.8 |
| 20260902184514 | 96 | 301 | 2.0 | 5.0 | 0.00 | 0.00 | 0.00 | 44 | 1012.8 |
| 20260902184054 | 97 | 297 | 2.0 | 5.0 | 0.00 | 0.00 | 0.00 | 44 | 1013.0 |
| 20260902183531 | 97 | 215 | 1.0 | 6.0 | 0.00 | 0.00 | 0.00 | 43 | 1013.1 |
| 20260902183042 | 98 | 259 | 2.0 | 7.0 | 0.00 | 0.00 | 0.00 | 42 | 1013.1 |
| 20260902182521 | 97 | 261 | 3.0 | 7.0 | 0.00 | 0.00 | 0.00 | 43 | 1013.2 |
| 20260902182101 | 97 | 247 | 1.0 | 7.0 | 0.00 | 0.00 | 0.00 | 43 | 1013.3 |
| 20260902181509 | 97 | 138 | 2.0 | 7.0 | 0.00 | 0.00 | 0.00 | 43 | 1013.3 |
| 20260902181050 | 97 | 139 | 1.0 | 7.0 | 0.00 | 0.00 | 0.00 | 44 | 1013.5 |
| 20260902180529 | 97 | 101 | 1.0 | 8.0 | 0.00 | 0.00 | 0.00 | 44 | 1013.7 |
| 20260902180043 | 97 | 135 | 3.0 | 8.0 | 0.00 | 0.00 | 0.00 | 44 | 1013.7 |
| 20260902175518 | 97 | 267 | 1.0 | 7.0 | 0.00 | 0.00 | 0.00 | 45 | 1013.8 |
| 20260902175103 | 97 | 153 | 1.0 | 7.0 | 0.00 | 0.00 | 0.00 | 45 | 1014.0 |
| 20260902174507 | 96 | 271 | 4.0 | 7.0 | 0.00 | 0.00 | 0.00 | 44 | 1014.0 |
| 20260902174047 | 96 | 208 | 1.0 | 7.0 | 0.00 | 0.00 | 0.00 | 45 | 1014.1 |
| 20260902173525 | 96 | 281 | 3.0 | 7.0 | 0.00 | 0.00 | 0.00 | 45 | 1014.2 |
| 20260902173038 | 95 | 258 | 1.0 | 6.0 | 0.00 | 0.00 | 0.00 | 45 | 1014.3 |
| 20260902172511 | 95 | 258 | 3.0 | 8.0 | 0.00 | 0.00 | 0.00 | 45 | 1014.3 |
| 20260902172053 | 95 | 254 | 3.0 | 8.0 | 0.00 | 0.00 | 0.00 | 45 | 1014.5 |
| 20260902171605 | 95 | 259 | 2.0 | 8.0 | 0.00 | 0.00 | 0.00 | 47 | 1014.5 |
| 20260902171042 | 95 | 246 | 1.0 | 7.0 | 0.00 | 0.00 | 0.00 | 47 | 1014.5 |
| 20260902170516 | 95 | 254 | 2.0 | 7.0 | 0.00 | 0.00 | 0.00 | 46 | 1014.6 |
| 20260902170024 | 94 | 209 | 0.0 | 7.0 | 0.00 | 0.00 | 0.00 | 47 | 1014.7 |
| 20260902165605 | 94 | 273 | 3.0 | 7.0 | 0.00 | 0.00 | 0.00 | 48 | 1014.7 |
| 20260902165041 | 94 | 210 | 2.0 | 4.0 | 0.00 | 0.00 | 0.00 | 50 | 1014.7 |
| 20260902164552 | 93 | 263 | 1.0 | 7.0 | 0.00 | 0.00 | 0.00 | 49 | 1014.8 |
| 20260902164029 | 93 | 244 | 2.0 | 7.0 | 0.00 | 0.00 | 0.00 | 50 | 1014.8 |
| 20260902163505 | 93 | 284 | 2.0 | 7.0 | 0.00 | 0.00 | 0.00 | 52 | 1014.9 |
| 20260902163017 | 92 | 331 | 0.0 | 6.0 | 0.00 | 0.00 | 0.00 | 53 | 1015.0 |
| 20260902162557 | 92 | 313 | 2.0 | 5.0 | 0.00 | 0.00 | 0.00 | 52 | 1015.0 |
| 20260902162035 | 92 | 271 | 2.0 | 4.0 | 0.00 | 0.00 | 0.00 | 53 | 1015.0 |
| 20260902161547 | 92 | 271 | 1.0 | 6.0 | 0.00 | 0.00 | 0.00 | 53 | 1015.1 |
| 20260902161025 | 92 | 271 | 1.0 | 6.0 | 0.00 | 0.00 | 0.00 | 54 | 1015.1 |
| 20260902160503 | 91 | 271 | 1.0 | 4.0 | 0.00 | 0.00 | 0.00 | 54 | 1015.1 |
| 20260902160013 | 91 | 271 | 1.0 | 5.0 | 0.00 | 0.00 | 0.00 | 55 | 1015.1 |
| 20260902155556 | 91 | 257 | 2.0 | 8.0 | 0.00 | 0.00 | 0.00 | 55 | 1015.2 |
| 20260902155033 | 90 | 281 | 2.0 | 8.0 | 0.00 | 0.00 | 0.00 | 55 | 1015.1 |
| 20260902154544 | 90 | 192 | 1.0 | 4.0 | 0.00 | 0.00 | 0.00 | 57 | 1015.1 |
| 20260902154020 | 89 | 276 | 1.0 | 4.0 | 0.00 | 0.00 | 0.00 | 57 | 1015.1 |
| 20260902153600 | 89 | 276 | 1.0 | 4.0 | 0.00 | 0.00 | 0.00 | 58 | 1015.2 |
| 20260902153007 | 89 | 218 | 1.0 | 4.0 | 0.00 | 0.00 | 0.00 | 60 | 1015.2 |
| 20260902152547 | 88 | 218 | 1.0 | 4.0 | 0.00 | 0.00 | 0.00 | 59 | 1015.2 |
| 20260902152025 | 88 | 219 | 0.0 | 3.0 | 0.00 | 0.00 | 0.00 | 60 | 1015.2 |
| 20260902151535 | 88 | 218 | 1.0 | 4.0 | 0.00 | 0.00 | 0.00 | 60 | 1015.2 |
| 20260902151012 | 87 | 218 | 1.0 | 4.0 | 0.00 | 0.00 | 0.00 | 61 | 1015.3 |
| 20260902150553 | 87 | 238 | 1.0 | 3.0 | 0.00 | 0.00 | 0.00 | 61 | 1015.2 |
| 20260902150105 | 87 | 243 | 1.0 | 3.0 | 0.00 | 0.00 | 0.00 | 62 | 1015.2 |
| 20260902145541 | 86 | 242 | 1.0 | 3.0 | 0.00 | 0.00 | 0.00 | 62 | 1015.2 |
| 20260902145018 | 86 | 242 | 1.0 | 4.0 | 0.00 | 0.00 | 0.00 | 62 | 1015.2 |
| 20260902144536 | 86 | 248 | 0.0 | 4.0 | 0.00 | 0.00 | 0.00 | 62 | 1015.3 |
| 20260902144011 | 85 | 248 | 0.0 | 2.0 | 0.00 | 0.00 | 0.00 | 67 | 1015.3 |
| 20260902143550 | 85 | 248 | 0.0 | 2.0 | 0.00 | 0.00 | 0.00 | 66 | 1015.3 |
| 20260902143102 | 84 | 248 | 0.0 | 2.0 | 0.00 | 0.00 | 0.00 | 67 | 1015.3 |
| 20260902142539 | 84 | 248 | 0.0 | 4.0 | 0.00 | 0.00 | 0.00 | 69 | 1015.3 |
| 20260902142016 | 83 | 248 | 1.0 | 4.0 | 0.00 | 0.00 | 0.00 | 70 | 1015.3 |
| 20260902141535 | 82 | 139 | 0.0 | 2.0 | 0.00 | 0.00 | 0.00 | 72 | 1015.2 |
| 20260902141008 | 82 | 139 | 0.0 | 4.0 | 0.00 | 0.00 | 0.00 | 73 | 1015.2 |
| 20260902140549 | 81 | 139 | 1.0 | 4.0 | 0.00 | 0.00 | 0.00 | 75 | 1015.1 |
| 20260902140106 | 80 | 130 | 0.0 | 0.0 | 0.00 | 0.00 | 0.00 | 76 | 1015.1 |
| 20260902135539 | 79 | 130 | 0.0 | 0.0 | 0.00 | 0.00 | 0.00 | 79 | 1015.1 |
| 20260902135017 | 78 | 130 | 0.0 | 0.0 | 0.00 | 0.00 | 0.00 | 81 | 1015.1 |
| 20260902134529 | 78 | 130 | 0.0 | 0.0 | 0.00 | 0.00 | 0.00 | 82 | 1015.1 |
| 20260902134006 | 77 | 130 | 0.0 | 0.0 | 0.00 | 0.00 | 0.00 | 84 | 1015.1 |
| 20260902133547 | 77 | 130 | 0.0 | 0.0 | 0.00 | 0.00 | 0.00 | 85 | 1015.1 |
| 20260902133108 | 76 | 130 | 0.0 | 0.0 | 0.00 | 0.00 | 0.00 | 85 | 1015.0 |
| 20260902132535 | 76 | 130 | 0.0 | 0.0 | 0.00 | 0.00 | 0.00 | 86 | 1014.9 |
| 20260902132011 | 75 | 130 | 0.0 | 0.0 | 0.00 | 0.00 | 0.00 | 86 | 1014.8 |
| 20260902131539 | 75 | 130 | 0.0 | 0.0 | 0.00 | 0.00 | 0.00 | 86 | 1014.8 |
| 20260902131107 | 75 | 130 | 0.0 | 0.0 | 0.00 | 0.00 | 0.00 | 87 | 1014.8 |
| 20260902130541 | 75 | 130 | 0.0 | 0.0 | 0.00 | 0.00 | 0.00 | 87 | 1014.8 |
| 20260902130056 | 74 | 130 | 0.0 | 0.0 | 0.00 | 0.00 | 0.00 | 87 | 1014.6 |
| 20260902125528 | 74 | 130 | 0.0 | 0.0 | 0.00 | 0.00 | 0.00 | 87 | 1014.6 |
| 20260902125004 | 74 | 130 | 0.0 | 0.0 | 0.00 | 0.00 | 0.00 | 87 | 1014.6 |
| 20260902124515 | 74 | 130 | 0.0 | 0.0 | 0.00 | 0.00 | 0.00 | 87 | 1014.5 |
| 20260902124056 | 74 | 130 | 0.0 | 0.0 | 0.00 | 0.00 | 0.00 | 87 | 1014.5 |
| 20260902123533 | 74 | 130 | 0.0 | 0.0 | 0.00 | 0.00 | 0.00 | 87 | 1014.5 |
| 20260902123044 | 74 | 130 | 0.0 | 0.0 | 0.00 | 0.00 | 0.00 | 87 | 1014.5 |
| 20260902122521 | 74 | 130 | 0.0 | 0.0 | 0.00 | 0.00 | 0.00 | 86 | 1014.5 |
| 20260902122103 | 74 | 130 | 0.0 | 0.0 | 0.00 | 0.00 | 0.00 | 86 | 1014.5 |
| 20260902121508 | 74 | 130 | 0.0 | 0.0 | 0.00 | 0.00 | 0.00 | 86 | 1014.5 |
| 20260902121049 | 74 | 130 | 0.0 | 0.0 | 0.00 | 0.00 | 0.00 | 86 | 1014.5 |
| 20260902120526 | 74 | 130 | 0.0 | 0.0 | 0.00 | 0.00 | 0.00 | 86 | 1014.4 |
| 20260902120040 | 75 | 130 | 0.0 | 0.0 | 0.00 | 0.00 | 0.00 | 85 | 1014.5 |
| 20260902115513 | 75 | 130 | 0.0 | 0.0 | 0.00 | 0.00 | 0.00 | 85 | 1014.5 |
| 20260902115054 | 75 | 130 | 0.0 | 0.0 | 0.00 | 0.00 | 0.00 | 85 | 1014.5 |
| 20260902114501 | 75 | 130 | 0.0 | 0.0 | 0.00 | 0.00 | 0.00 | 85 | 1014.5 |
| 20260902114041 | 75 | 130 | 0.0 | 0.0 | 0.00 | 0.00 | 0.00 | 84 | 1014.4 |
| 20260902113515 | 75 | 130 | 0.0 | 0.0 | 0.00 | 0.00 | 0.00 | 84 | 1014.4 |
| 20260902113026 | 75 | 130 | 0.0 | 0.0 | 0.00 | 0.00 | 0.00 | 84 | 1014.2 |
| 20260902112503 | 76 | 130 | 0.0 | 0.0 | 0.00 | 0.00 | 0.00 | 84 | 1014.1 |
| 20260902112044 | 76 | 130 | 0.0 | 0.0 | 0.00 | 0.00 | 0.00 | 84 | 1014.1 |
| 20260902111555 | 76 | 130 | 0.0 | 0.0 | 0.00 | 0.00 | 0.00 | 84 | 1014.1 |
| 20260902111031 | 76 | 130 | 0.0 | 0.0 | 0.00 | 0.00 | 0.00 | 84 | 1014.0 |
| 20260902110508 | 76 | 130 | 0.0 | 0.0 | 0.00 | 0.00 | 0.00 | 85 | 1014.0 |
| 20260902110020 | 75 | 130 | 0.0 | 0.0 | 0.00 | 0.00 | 0.00 | 85 | 1014.0 |
| 20260902105601 | 75 | 130 | 0.0 | 0.0 | 0.00 | 0.00 | 0.00 | 85 | 1014.0 |
| 20260902105037 | 75 | 130 | 0.0 | 0.0 | 0.00 | 0.00 | 0.00 | 86 | 1013.9 |
| 20260902104555 | 75 | 130 | 0.0 | 0.0 | 0.00 | 0.00 | 0.00 | 86 | 1014.0 |
| 20260902104025 | 75 | 130 | 0.0 | 2.0 | 0.00 | 0.00 | 0.00 | 86 | 1014.0 |
| 20260902103501 | 75 | 130 | 0.0 | 2.0 | 0.00 | 0.00 | 0.00 | 86 | 1014.0 |
| 20260902103012 | 75 | 130 | 0.0 | 1.0 | 0.00 | 0.00 | 0.00 | 86 | 1014.0 |
| 20260902102557 | 75 | 130 | 0.0 | 0.0 | 0.00 | 0.00 | 0.00 | 86 | 1014.0 |
| 20260902102030 | 75 | 130 | 0.0 | 0.0 | 0.00 | 0.00 | 0.00 | 86 | 1014.0 |
| 20260902101545 | 75 | 130 | 0.0 | 0.0 | 0.00 | 0.00 | 0.00 | 86 | 1014.0 |
| 20260902101019 | 75 | 130 | 0.0 | 0.0 | 0.00 | 0.00 | 0.00 | 86 | 1014.0 |
| 20260902100559 | 75 | 130 | 0.0 | 0.0 | 0.00 | 0.00 | 0.00 | 85 | 1014.1 |
| 20260902100004 | 75 | 130 | 0.0 | 0.0 | 0.00 | 0.00 | 0.00 | 85 | 1014.2 |
| 20260902095549 | 75 | 130 | 0.0 | 0.0 | 0.00 | 0.00 | 0.00 | 85 | 1014.2 |
| 20260902095022 | 75 | 130 | 0.0 | 0.0 | 0.00 | 0.00 | 0.00 | 84 | 1014.2 |
| 20260902094533 | 76 | 130 | 0.0 | 0.0 | 0.00 | 0.00 | 0.00 | 84 | 1014.3 |
| 20260902094012 | 76 | 130 | 0.0 | 0.0 | 0.00 | 0.00 | 0.00 | 84 | 1014.2 |
| 20260902093551 | 76 | 130 | 0.0 | 0.0 | 0.00 | 0.00 | 0.00 | 84 | 1014.2 |
| 20260902093104 | 76 | 130 | 0.0 | 0.0 | 0.00 | 0.00 | 0.00 | 84 | 1014.2 |
| 20260902092540 | 76 | 130 | 0.0 | 0.0 | 0.00 | 0.00 | 0.00 | 84 | 1014.3 |
| 20260902092015 | 76 | 130 | 0.0 | 0.0 | 0.00 | 0.00 | 0.00 | 84 | 1014.3 |
| 20260902091554 | 76 | 130 | 0.0 | 0.0 | 0.00 | 0.00 | 0.00 | 83 | 1014.2 |
| 20260902091003 | 76 | 130 | 0.0 | 0.0 | 0.00 | 0.00 | 0.00 | 82 | 1014.3 |
| 20260902090544 | 76 | 130 | 0.0 | 0.0 | 0.00 | 0.00 | 0.00 | 82 | 1014.4 |
| 20260902085532 | 77 | 130 | 0.0 | 0.0 | 0.00 | 0.00 | 0.00 | 81 | 1014.3 |
| 20260902085008 | 77 | 130 | 0.0 | 0.0 | 0.00 | 0.00 | 0.00 | 81 | 1014.3 |
| 20260902084519 | 77 | 130 | 0.0 | 0.0 | 0.00 | 0.00 | 0.00 | 81 | 1014.3 |
| 20260902084100 | 77 | 130 | 0.0 | 0.0 | 0.00 | 0.00 | 0.00 | 80 | 1014.3 |
| 20260902083537 | 77 | 130 | 0.0 | 0.0 | 0.00 | 0.00 | 0.00 | 80 | 1014.3 |
| 20260902083048 | 78 | 130 | 0.0 | 2.0 | 0.00 | 0.00 | 0.00 | 80 | 1014.3 |
| 20260902082524 | 78 | 130 | 0.0 | 2.0 | 0.00 | 0.00 | 0.00 | 80 | 1014.3 |
| 20260902082105 | 78 | 130 | 0.0 | 2.0 | 0.00 | 0.00 | 0.00 | 79 | 1014.4 |
| 20260902081515 | 78 | 130 | 0.0 | 2.0 | 0.00 | 0.00 | 0.00 | 80 | 1014.3 |
| 20260902081053 | 78 | 130 | 0.0 | 2.0 | 0.00 | 0.00 | 0.00 | 79 | 1014.4 |
| 20260902080529 | 78 | 130 | 0.0 | 3.0 | 0.00 | 0.00 | 0.00 | 80 | 1014.5 |
| 20260902080055 | 78 | 130 | 1.0 | 3.0 | 0.00 | 0.00 | 0.00 | 79 | 1014.4 |
| 20260902075516 | 78 | 130 | 0.0 | 3.0 | 0.00 | 0.00 | 0.00 | 79 | 1014.5 |
| 20260902075058 | 78 | 130 | 1.0 | 3.0 | 0.00 | 0.00 | 0.00 | 79 | 1014.5 |
| 20260902074504 | 78 | 130 | 1.0 | 3.0 | 0.00 | 0.00 | 0.00 | 79 | 1014.5 |
| 20260902074048 | 78 | 130 | 1.0 | 2.0 | 0.00 | 0.00 | 0.00 | 79 | 1014.5 |
| 20260902073522 | 78 | 130 | 0.0 | 1.0 | 0.00 | 0.00 | 0.00 | 78 | 1014.5 |
| 20260902073034 | 79 | 130 | 0.0 | 1.0 | 0.00 | 0.00 | 0.00 | 77 | 1014.5 |
| 20260902072509 | 79 | 130 | 0.0 | 1.0 | 0.00 | 0.00 | 0.00 | 77 | 1014.6 |
| 20260902072050 | 79 | 130 | 0.0 | 1.0 | 0.00 | 0.00 | 0.00 | 77 | 1014.5 |
| 20260902071628 | 79 | 130 | 0.0 | 1.0 | 0.00 | 0.00 | 0.00 | 77 | 1014.6 |
| 20260902071038 | 79 | 130 | 0.0 | 2.0 | 0.00 | 0.00 | 0.00 | 76 | 1014.7 |
| 20260902070514 | 79 | 130 | 0.0 | 2.0 | 0.00 | 0.00 | 0.00 | 76 | 1014.7 |
| 20260902070025 | 80 | 130 | 0.0 | 2.0 | 0.00 | 0.00 | 0.00 | 76 | 1014.7 |
| 20260902065502 | 80 | 130 | 0.0 | 3.0 | 0.00 | 0.00 | 0.00 | 75 | 1014.7 |
| 20260902065043 | 80 | 130 | 0.0 | 3.0 | 0.00 | 0.00 | 0.00 | 75 | 1014.7 |
| 20260902064556 | 80 | 130 | 0.0 | 3.0 | 0.00 | 0.00 | 0.00 | 75 | 1014.8 |
| 20260902064030 | 80 | 130 | 0.0 | 3.0 | 0.00 | 0.00 | 0.00 | 75 | 1014.8 |
| 20260902063507 | 80 | 130 | 0.0 | 1.0 | 0.00 | 0.00 | 0.00 | 74 | 1014.9 |
| 20260902063025 | 80 | 130 | 0.0 | 1.0 | 0.00 | 0.00 | 0.00 | 73 | 1014.8 |
| 20260902062558 | 80 | 130 | 0.0 | 2.0 | 0.00 | 0.00 | 0.00 | 73 | 1014.8 |
| 20260902062035 | 80 | 130 | 1.0 | 2.0 | 0.00 | 0.00 | 0.00 | 73 | 1014.8 |
| 20260902061603 | 80 | 130 | 0.0 | 2.0 | 0.00 | 0.00 | 0.00 | 72 | 1014.9 |
| 20260902061024 | 80 | 130 | 0.0 | 2.0 | 0.00 | 0.00 | 0.00 | 72 | 1014.9 |
| 20260902060605 | 80 | 130 | 0.0 | 2.0 | 0.00 | 0.00 | 0.00 | 71 | 1015.0 |
| 20260902060020 | 81 | 130 | 0.0 | 3.0 | 0.00 | 0.00 | 0.00 | 70 | 1014.9 |
| 20260902055556 | 81 | 130 | 0.0 | 3.0 | 0.00 | 0.00 | 0.00 | 69 | 1014.8 |
| 20260902055029 | 81 | 130 | 0.0 | 1.0 | 0.00 | 0.00 | 0.00 | 68 | 1014.8 |
| 20260902054545 | 81 | 130 | 0.0 | 2.0 | 0.00 | 0.00 | 0.00 | 68 | 1014.7 |
| 20260902054016 | 81 | 130 | 0.0 | 2.0 | 0.00 | 0.00 | 0.00 | 68 | 1014.6 |
| 20260902053558 | 82 | 130 | 1.0 | 2.0 | 0.00 | 0.00 | 0.00 | 69 | 1014.6 |
| 20260902053005 | 82 | 130 | 0.0 | 3.0 | 0.00 | 0.00 | 0.00 | 68 | 1014.5 |
| 20260902052546 | 82 | 130 | 1.0 | 3.0 | 0.00 | 0.00 | 0.00 | 67 | 1014.5 |
| 20260902052022 | 82 | 130 | 1.0 | 4.0 | 0.00 | 0.00 | 0.00 | 67 | 1014.5 |
| 20260902051533 | 82 | 130 | 2.0 | 4.0 | 0.00 | 0.00 | 0.00 | 66 | 1014.5 |
| 20260902051012 | 83 | 130 | 2.0 | 4.0 | 0.00 | 0.00 | 0.00 | 66 | 1014.5 |
| 20260902050553 | 83 | 130 | 1.0 | 4.0 | 0.00 | 0.00 | 0.00 | 65 | 1014.4 |
| 20260902050112 | 83 | 116 | 1.0 | 4.0 | 0.00 | 0.00 | 0.00 | 65 | 1014.5 |
| 20260902045539 | 83 | 103 | 0.0 | 3.0 | 0.00 | 0.00 | 0.00 | 65 | 1014.6 |
| 20260902045016 | 83 | 105 | 0.0 | 3.0 | 0.00 | 0.00 | 0.00 | 65 | 1014.6 |
| 20260902044530 | 83 | 92 | 0.0 | 2.0 | 0.00 | 0.00 | 0.00 | 65 | 1014.5 |
| 20260902044004 | 83 | 88 | 0.0 | 2.0 | 0.00 | 0.00 | 0.00 | 66 | 1014.6 |
| 20260902043548 | 83 | 88 | 0.0 | 3.0 | 0.00 | 0.00 | 0.00 | 66 | 1014.6 |
| 20260902043057 | 82 | 70 | 1.0 | 6.0 | 0.00 | 0.00 | 0.00 | 67 | 1014.6 |
| 20260902042533 | 82 | 67 | 1.0 | 6.0 | 0.00 | 0.00 | 0.00 | 68 | 1014.5 |
| 20260902042012 | 82 | 123 | 0.0 | 0.0 | 0.00 | 0.00 | 0.00 | 68 | 1014.5 |
| 20260902041531 | 82 | 123 | 0.0 | 0.0 | 0.00 | 0.00 | 0.00 | 67 | 1014.5 |
| 20260902041105 | 83 | 123 | 0.0 | 0.0 | 0.00 | 0.00 | 0.00 | 67 | 1014.3 |
| 20260902040538 | 83 | 123 | 0.0 | 0.0 | 0.00 | 0.00 | 0.00 | 66 | 1014.3 |
| 20260902040050 | 83 | 123 | 0.0 | 0.0 | 0.00 | 0.00 | 0.00 | 66 | 1014.4 |
| 20260902035528 | 83 | 123 | 0.0 | 0.0 | 0.00 | 0.00 | 0.00 | 65 | 1014.3 |
| 20260902035005 | 84 | 123 | 0.0 | 0.0 | 0.00 | 0.00 | 0.00 | 64 | 1014.3 |
| 20260902034518 | 84 | 123 | 0.0 | 0.0 | 0.00 | 0.00 | 0.00 | 64 | 1014.2 |
| 20260902034103 | 84 | 123 | 0.0 | 0.0 | 0.00 | 0.00 | 0.00 | 63 | 1014.2 |
| 20260902033537 | 84 | 123 | 0.0 | 0.0 | 0.00 | 0.00 | 0.00 | 63 | 1014.1 |
| 20260902033047 | 85 | 123 | 0.0 | 0.0 | 0.00 | 0.00 | 0.00 | 63 | 1014.0 |
| 20260902032528 | 85 | 123 | 0.0 | 0.0 | 0.00 | 0.00 | 0.00 | 62 | 1014.0 |
| 20260902032004 | 85 | 123 | 0.0 | 0.0 | 0.00 | 0.00 | 0.00 | 61 | 1013.9 |
| 20260902031516 | 85 | 123 | 0.0 | 0.0 | 0.00 | 0.00 | 0.00 | 61 | 1013.9 |
| 20260902031059 | 85 | 123 | 0.0 | 0.0 | 0.00 | 0.00 | 0.00 | 60 | 1013.7 |
| 20260902030540 | 86 | 123 | 0.0 | 0.0 | 0.00 | 0.00 | 0.00 | 60 | 1013.7 |
| 20260902030049 | 86 | 123 | 0.0 | 0.0 | 0.00 | 0.00 | 0.00 | 60 | 1013.6 |
| 20260902025527 | 86 | 123 | 0.0 | 0.0 | 0.00 | 0.00 | 0.00 | 59 | 1013.5 |
| 20260902025005 | 86 | 123 | 0.0 | 0.0 | 0.00 | 0.00 | 0.00 | 58 | 1013.3 |
| 20260902024514 | 86 | 123 | 0.0 | 0.0 | 0.00 | 0.00 | 0.00 | 58 | 1013.2 |
| 20260902024055 | 87 | 123 | 0.0 | 0.0 | 0.00 | 0.00 | 0.00 | 57 | 1013.1 |
| 20260902023532 | 87 | 123 | 0.0 | 0.0 | 0.00 | 0.00 | 0.00 | 56 | 1013.0 |
| 20260902023043 | 87 | 123 | 0.0 | 0.0 | 0.00 | 0.00 | 0.00 | 56 | 1012.9 |
| 20260902022519 | 88 | 123 | 0.0 | 0.0 | 0.00 | 0.00 | 0.00 | 55 | 1012.8 |
| 20260902022101 | 88 | 123 | 0.0 | 0.0 | 0.00 | 0.00 | 0.00 | 55 | 1012.9 |
| 20260902021506 | 88 | 123 | 0.0 | 0.0 | 0.00 | 0.00 | 0.00 | 54 | 1012.7 |
| 20260902021047 | 88 | 123 | 0.0 | 0.0 | 0.00 | 0.00 | 0.00 | 54 | 1012.6 |
| 20260902020524 | 89 | 123 | 0.0 | 0.0 | 0.00 | 0.00 | 0.00 | 53 | 1012.5 |
| 20260902020035 | 89 | 123 | 0.0 | 1.0 | 0.00 | 0.00 | 0.00 | 53 | 1012.5 |
| 20260902015508 | 89 | 123 | 0.0 | 1.0 | 0.00 | 0.00 | 0.00 | 52 | 1012.4 |
| 20260902015049 | 90 | 123 | 0.0 | 1.0 | 0.00 | 0.00 | 0.00 | 52 | 1012.4 |
| 20260902014601 | 90 | 123 | 0.0 | 2.0 | 0.00 | 0.00 | 0.00 | 51 | 1012.4 |
| 20260902014037 | 90 | 123 | 0.0 | 2.0 | 0.00 | 0.00 | 0.00 | 50 | 1012.3 |
| 20260902013513 | 91 | 123 | 0.0 | 2.0 | 0.00 | 0.00 | 0.00 | 50 | 1012.3 |
| 20260902013025 | 91 | 123 | 0.0 | 3.0 | 0.00 | 0.00 | 0.00 | 49 | 1012.3 |
| 20260902012501 | 91 | 123 | 0.0 | 3.0 | 0.00 | 0.00 | 0.00 | 49 | 1012.2 |
| 20260902012042 | 92 | 123 | 0.0 | 2.0 | 0.00 | 0.00 | 0.00 | 48 | 1012.2 |
| 20260902011559 | 92 | 123 | 0.0 | 4.0 | 0.00 | 0.00 | 0.00 | 48 | 1012.1 |
| 20260902011030 | 92 | 123 | 1.0 | 4.0 | 0.00 | 0.00 | 0.00 | 47 | 1012.0 |
| 20260902010505 | 93 | 123 | 1.0 | 4.0 | 0.00 | 0.00 | 0.00 | 47 | 1012.0 |
| 20260902010030 | 93 | 123 | 2.0 | 4.0 | 0.00 | 0.00 | 0.00 | 47 | 1012.0 |
| 20260902005558 | 93 | 123 | 1.0 | 5.0 | 0.00 | 0.00 | 0.00 | 47 | 1012.0 |
| 20260902005033 | 93 | 133 | 2.0 | 5.0 | 0.00 | 0.00 | 0.00 | 46 | 1012.0 |
| 20260902004544 | 94 | 125 | 2.0 | 6.0 | 0.00 | 0.00 | 0.00 | 45 | 1012.1 |
| 20260902004019 | 95 | 126 | 1.0 | 5.0 | 0.00 | 0.00 | 0.00 | 44 | 1012.1 |
| 20260902003600 | 95 | 75 | 1.0 | 5.0 | 0.00 | 0.00 | 0.00 | 43 | 1012.1 |
| 20260902003007 | 95 | 109 | 1.0 | 7.0 | 0.00 | 0.00 | 0.00 | 42 | 1012.1 |
| 20260902002550 | 96 | 115 | 2.0 | 7.0 | 0.00 | 0.00 | 0.00 | 41 | 1012.2 |
| 20260902002024 | 96 | 95 | 1.0 | 6.0 | 0.00 | 0.00 | 0.00 | 41 | 1012.2 |
| 20260902001532 | 97 | 127 | 1.0 | 7.0 | 0.00 | 0.00 | 0.00 | 40 | 1012.2 |
| 20260902001008 | 97 | 80 | 3.0 | 7.0 | 0.00 | 0.00 | 0.00 | 40 | 1012.2 |
| 20260902000550 | 98 | 72 | 2.0 | 5.0 | 0.00 | 0.00 | 0.00 | 41 | 1012.2 |
| 20260901235538 | 98 | 118 | 2.0 | 6.0 | 0.00 | 0.00 | 0.00 | 41 | 1012.1 |
| 20260901235018 | 98 | 70 | 2.0 | 8.0 | 0.00 | 0.00 | 0.00 | 41 | 1012.1 |
| 20260901234525 | 98 | 142 | 2.0 | 8.0 | 0.00 | 0.00 | 0.00 | 40 | 1012.1 |
| 20260901234002 | 98 | 75 | 2.0 | 8.0 | 0.00 | 0.00 | 0.00 | 40 | 1012.2 |
| 20260901233543 | 98 | 63 | 3.0 | 8.0 | 0.00 | 0.00 | 0.00 | 41 | 1012.2 |
| 20260901233101 | 99 | 90 | 2.0 | 8.0 | 0.00 | 0.00 | 0.00 | 41 | 1012.1 |
| 20260901232531 | 99 | 71 | 3.0 | 8.0 | 0.00 | 0.00 | 0.00 | 41 | 1012.2 |
| 20260901232009 | 99 | 80 | 2.0 | 10.0 | 0.00 | 0.00 | 0.00 | 41 | 1012.1 |
| 20260901231519 | 99 | 65 | 2.0 | 10.0 | 0.00 | 0.00 | 0.00 | 41 | 1012.2 |
| 20260901231059 | 99 | 59 | 3.0 | 10.0 | 0.00 | 0.00 | 0.00 | 40 | 1012.1 |
| 20260901230536 | 99 | 107 | 4.0 | 11.0 | 0.00 | 0.00 | 0.00 | 40 | 1012.1 |
| 20260901230048 | 100 | 105 | 3.0 | 11.0 | 0.00 | 0.00 | 0.00 | 40 | 1012.1 |
| 20260901225526 | 99 | 94 | 3.0 | 8.0 | 0.00 | 0.00 | 0.00 | 40 | 1012.2 |
| 20260901225105 | 99 | 53 | 1.0 | 6.0 | 0.00 | 0.00 | 0.00 | 40 | 1012.2 |
| 20260901224512 | 99 | 109 | 1.0 | 7.0 | 0.00 | 0.00 | 0.00 | 41 | 1012.1 |
| 20260901224053 | 99 | 90 | 1.0 | 7.0 | 0.00 | 0.00 | 0.00 | 40 | 1012.2 |
| 20260901223529 | 99 | 86 | 2.0 | 9.0 | 0.00 | 0.00 | 0.00 | 40 | 1012.2 |
| 20260901223050 | 99 | 36 | 2.0 | 9.0 | 0.00 | 0.00 | 0.00 | 40 | 1012.2 |
| 20260901222516 | 99 | 117 | 3.0 | 9.0 | 0.00 | 0.00 | 0.00 | 42 | 1012.2 |
| 20260901222058 | 99 | 93 | 0.0 | 7.0 | 0.00 | 0.00 | 0.00 | 42 | 1012.2 |
| 20260901221504 | 99 | 138 | 3.0 | 7.0 | 0.00 | 0.00 | 0.00 | 39 | 1012.2 |
| 20260901221046 | 99 | 211 | 1.0 | 9.0 | 0.00 | 0.00 | 0.00 | 39 | 1012.1 |
| 20260901220525 | 99 | 173 | 3.0 | 10.0 | 0.00 | 0.00 | 0.00 | 39 | 1012.2 |
| 20260901220033 | 99 | 138 | 3.0 | 10.0 | 0.00 | 0.00 | 0.00 | 39 | 1012.3 |
| 20260901215511 | 99 | 140 | 1.0 | 8.0 | 0.00 | 0.00 | 0.00 | 40 | 1012.3 |
| 20260901215054 | 98 | 70 | 2.0 | 8.0 | 0.00 | 0.00 | 0.00 | 42 | 1012.3 |
| 20260901214501 | 98 | 63 | 2.0 | 9.0 | 0.00 | 0.00 | 0.00 | 42 | 1012.4 |
| 20260901214043 | 98 | 134 | 3.0 | 9.0 | 0.00 | 0.00 | 0.00 | 40 | 1012.3 |
| 20260901213520 | 99 | 32 | 2.0 | 7.0 | 0.00 | 0.00 | 0.00 | 40 | 1012.3 |
| 20260901213039 | 100 | 119 | 2.0 | 9.0 | 0.00 | 0.00 | 0.00 | 39 | 1012.4 |
| 20260901212507 | 100 | 67 | 2.0 | 9.0 | 0.00 | 0.00 | 0.00 | 39 | 1012.4 |
| 20260901212048 | 100 | 80 | 4.0 | 9.0 | 0.00 | 0.00 | 0.00 | 40 | 1012.4 |
| 20260901211600 | 100 | 59 | 2.0 | 5.0 | 0.00 | 0.00 | 0.00 | 39 | 1012.4 |
| 20260901211035 | 99 | 152 | 2.0 | 10.0 | 0.00 | 0.00 | 0.00 | 39 | 1012.6 |
| 20260901210512 | 99 | 132 | 2.0 | 11.0 | 0.00 | 0.00 | 0.00 | 41 | 1012.6 |
| 20260901210034 | 99 | 121 | 5.0 | 11.0 | 0.00 | 0.00 | 0.00 | 40 | 1012.7 |
| 20260901205602 | 98 | 136 | 3.0 | 10.0 | 0.00 | 0.00 | 0.00 | 40 | 1012.8 |
| 20260901205039 | 99 | 146 | 3.0 | 10.0 | 0.00 | 0.00 | 0.00 | 39 | 1012.8 |
| 20260901204550 | 99 | 144 | 4.0 | 10.0 | 0.00 | 0.00 | 0.00 | 40 | 1012.9 |
| 20260901204029 | 99 | 117 | 4.0 | 10.0 | 0.00 | 0.00 | 0.00 | 41 | 1012.9 |
| 20260901203507 | 99 | 132 | 5.0 | 9.0 | 0.00 | 0.00 | 0.00 | 39 | 1012.8 |
| 20260901203020 | 100 | 63 | 3.0 | 11.0 | 0.00 | 0.00 | 0.00 | 41 | 1013.0 |
| 20260901202559 | 100 | 122 | 6.0 | 11.0 | 0.00 | 0.00 | 0.00 | 40 | 1013.1 |
| 20260901202040 | 99 | 224 | 1.0 | 8.0 | 0.00 | 0.00 | 0.00 | 41 | 1013.1 |
| 20260901201552 | 99 | 88 | 1.0 | 10.0 | 0.00 | 0.00 | 0.00 | 40 | 1013.3 |
| 20260901201029 | 99 | 122 | 4.0 | 10.0 | 0.00 | 0.00 | 0.00 | 41 | 1013.4 |
| 20260901200505 | 99 | 72 | 3.0 | 12.0 | 0.00 | 0.00 | 0.00 | 43 | 1013.5 |
| 20260901200037 | 99 | 153 | 3.0 | 12.0 | 0.00 | 0.00 | 0.00 | 43 | 1013.5 |
| 20260901195558 | 98 | 344 | 1.0 | 9.0 | 0.00 | 0.00 | 0.00 | 43 | 1013.5 |
| 20260901195035 | 98 | 87 | 4.0 | 9.0 | 0.00 | 0.00 | 0.00 | 42 | 1013.7 |
| 20260901194556 | 98 | 135 | 3.0 | 9.0 | 0.00 | 0.00 | 0.00 | 42 | 1013.7 |
| 20260901194022 | 98 | 136 | 2.0 | 9.0 | 0.00 | 0.00 | 0.00 | 42 | 1013.9 |
| 20260901193603 | 99 | 130 | 4.0 | 12.0 | 0.00 | 0.00 | 0.00 | 43 | 1013.8 |
| 20260901193010 | 99 | 64 | 2.0 | 6.0 | 0.00 | 0.00 | 0.00 | 44 | 1013.9 |